Precipitable_Water
0.59 0.59 0.59 0.61 0.61 0.58 0.58 0.60 0.59 0.57 0.57 0.59 0.57 0.57 0.57 0.58 0.55 0.54 0.56 0.57 0.62 0.65 0.61 0.57 0.56 0.51 0.50 0.53 0.55 0.57 0.56 0.44 0.38 0.32 0.29 0.27 0.42 0.52 0.58 0.61 0.58 0.54 0.48 0.43 0.40 0.32 0.25 0.25 0.23 0.28 0.27 0.28 0.27 0.25 0.27 0.25 0.23 0.18 0.12 0.11 0.10 0.10 0.09 0.10 0.09 0.09 0.10 0.09 0.10 0.11 0.11 0.10 0.09 0.13 0.17 0.19 0.25 0.37 0.46 0.49 0.62 0.70 0.65 0.71 0.79 0.81 0.81 0.84
0.58 0.58 0.58 0.58 0.58 0.58 0.58 0.58 0.60 0.60 0.58 0.54 0.53 0.56 0.54 0.56 0.57 0.56 0.54 0.55 0.58 0.62 0.64 0.63 0.60 0.58 0.53 0.49 0.52 0.56 0.52 0.44 0.32 0.29 0.25 0.38 0.51 0.55 0.62 0.65 0.65 0.57 0.53 0.41 0.37 0.32 0.27 0.23 0.23 0.25 0.23 0.21 0.28 0.22 0.26 0.22 0.24 0.15 0.12 0.11 0.08 0.11 0.11 0.14 0.12 0.12 0.10 0.09 0.11 0.12 0.13 0.11 0.12 0.14 0.18 0.16 0.17 0.21 0.26 0.41 0.56 0.58 0.67 0.76 0.78 0.84 0.84 0.84
0.58 0.58 0.58 0.59 0.59 0.58 0.58 0.57 0.56 0.58 0.59 0.57 0.55 0.54 0.56 0.53 0.53 0.57 0.55 0.52 0.54 0.59 0.63 0.65 0.66 0.63 0.59 0.54 0.48 0.57 0.50 0.33 0.30 0.20 0.34 0.61 0.57 0.53 0.54 0.58 0.62 0.58 0.48 0.38 0.40 0.38 0.32 0.27 0.26 0.24 0.22 0.19 0.22 0.19 0.22 0.20 0.21 0.18 0.13 0.09 0.10 0.14 0.15 0.15 0.15 0.13 0.13 0.12 0.12 0.12 0.13 0.12 0.13 0.16 0.19 0.17 0.17 0.18 0.18 0.25 0.44 0.53 0.57 0.68 0.74 0.80 0.85 0.86
0.59 0.59 0.58 0.58 0.59 0.59 0.58 0.57 0.56 0.55 0.56 0.56 0.57 0.55 0.54 0.57 0.57 0.57 0.58 0.56 0.53 0.55 0.60 0.65 0.66 0.66 0.63 0.58 0.54 0.53 0.44 0.34 0.19 0.20 0.48 0.57 0.54 0.51 0.50 0.57 0.62 0.57 0.51 0.46 0.42 0.42 0.42 0.34 0.28 0.24 0.21 0.18 0.20 0.21 0.18 0.20 0.17 0.18 0.15 0.11 0.11 0.14 0.13 0.15 0.16 0.15 0.15 0.16 0.14 0.14 0.14 0.12 0.13 0.17 0.18 0.19 0.17 0.17 0.18 0.31 0.41 0.50 0.63 0.72 0.78 0.78 0.84 0.87
0.59 0.59 0.59 0.58 0.57 0.58 0.58 0.57 0.57 0.56 0.55 0.53 0.54 0.56 0.57 0.53 0.53 0.55 0.57 0.59 0.57 0.53 0.55 0.60 0.63 0.65 0.64 0.63 0.51 0.52 0.42 0.19 0.21 0.43 0.59 0.53 0.54 0.51 0.50 0.55 0.65 0.57 0.50 0.46 0.45 0.43 0.38 0.33 0.28 0.25 0.21 0.16 0.19 0.19 0.18 0.20 0.20 0.20 0.14 0.15 0.16 0.16 0.13 0.15 0.16 0.18 0.17 0.18 0.16 0.16 0.13 0.11 0.15 0.17 0.18 0.19 0.17 0.16 0.18 0.22 0.37 0.52 0.69 0.77 0.78 0.78 0.84 0.85
0.57 0.56 0.57 0.57 0.57 0.56 0.55 0.54 0.53 0.54 0.53 0.50 0.51 0.54 0.56 0.56 0.57 0.53 0.52 0.54 0.55 0.53 0.51 0.54 0.59 0.61 0.64 0.63 0.50 0.47 0.35 0.14 0.50 0.54 0.63 0.60 0.55 0.51 0.50 0.51 0.61 0.58 0.52 0.44 0.42 0.40 0.36 0.33 0.29 0.21 0.20 0.18 0.16 0.15 0.18 0.19 0.21 0.13 0.17 0.16 0.18 0.19 0.15 0.16 0.16 0.17 0.19 0.17 0.16 0.15 0.16 0.16 0.14 0.15 0.19 0.20 0.19 0.20 0.22 0.23 0.30 0.41 0.54 0.77 0.93 0.92 0.82 0.81
0.55 0.54 0.55 0.55 0.56 0.56 0.55 0.52 0.50 0.49 0.47 0.48 0.50 0.52 0.52 0.55 0.54 0.54 0.52 0.49 0.48 0.50 0.49 0.49 0.53 0.58 0.60 0.61 0.49 0.39 0.30 0.28 0.32 0.55 0.61 0.65 0.58 0.52 0.50 0.49 0.53 0.55 0.51 0.41 0.40 0.36 0.35 0.32 0.29 0.22 0.20 0.18 0.18 0.17 0.18 0.18 0.21 0.17 0.13 0.18 0.17 0.19 0.17 0.20 0.18 0.19 0.19 0.18 0.17 0.17 0.18 0.15 0.13 0.12 0.18 0.18 0.21 0.23 0.24 0.25 0.30 0.44 0.60 0.75 0.76 0.80 0.79 0.76
0.53 0.53 0.53 0.55 0.54 0.54 0.55 0.54 0.53 0.51 0.49 0.48 0.50 0.52 0.53 0.51 0.50 0.51 0.53 0.53 0.50 0.50 0.52 0.49 0.49 0.54 0.59 0.53 0.37 0.27 0.29 0.24 0.39 0.46 0.55 0.58 0.58 0.57 0.52 0.48 0.47 0.45 0.44 0.41 0.39 0.35 0.35 0.30 0.27 0.27 0.21 0.17 0.17 0.17 0.18 0.17 0.18 0.16 0.15 0.18 0.19 0.20 0.19 0.18 0.19 0.20 0.21 0.20 0.20 0.19 0.16 0.15 0.15 0.14 0.17 0.17 0.21 0.23 0.24 0.32 0.41 0.50 0.61 0.72 0.78 0.79 0.82 0.85
0.52 0.53 0.53 0.53 0.54 0.53 0.54 0.53 0.53 0.52 0.52 0.51 0.49 0.50 0.49 0.49 0.50 0.51 0.50 0.51 0.51 0.51 0.49 0.52 0.48 0.49 0.60 0.51 0.37 0.27 0.22 0.26 0.36 0.41 0.49 0.53 0.55 0.55 0.55 0.47 0.48 0.42 0.38 0.40 0.43 0.41 0.36 0.31 0.31 0.29 0.20 0.19 0.20 0.17 0.18 0.16 0.14 0.18 0.17 0.19 0.18 0.19 0.19 0.19 0.18 0.18 0.19 0.19 0.20 0.17 0.15 0.17 0.17 0.18 0.15 0.18 0.22 0.25 0.35 0.41 0.49 0.54 0.59 0.67 0.73 0.76 0.77 0.81
0.51 0.50 0.51 0.51 0.52 0.53 0.53 0.52 0.52 0.51 0.51 0.50 0.49 0.47 0.47 0.47 0.46 0.46 0.48 0.48 0.48 0.51 0.51 0.49 0.50 0.47 0.50 0.43 0.37 0.22 0.26 0.40 0.53 0.50 0.46 0.52 0.54 0.52 0.51 0.51 0.50 0.43 0.37 0.37 0.40 0.39 0.35 0.33 0.31 0.33 0.29 0.24 0.24 0.19 0.21 0.17 0.15 0.19 0.18 0.17 0.18 0.18 0.19 0.20 0.18 0.19 0.20 0.19 0.19 0.17 0.15 0.15 0.18 0.15 0.11 0.18 0.30 0.38 0.41 0.42 0.53 0.55 0.55 0.70 0.75 0.79 0.83 0.83
0.49 0.49 0.50 0.51 0.51 0.52 0.51 0.50 0.49 0.49 0.48 0.47 0.45 0.45 0.45 0.45 0.45 0.45 0.45 0.46 0.47 0.49 0.52 0.51 0.50 0.45 0.38 0.44 0.29 0.20 0.34 0.32 0.40 0.41 0.42 0.42 0.47 0.47 0.46 0.49 0.51 0.45 0.41 0.38 0.37 0.40 0.40 0.39 0.37 0.35 0.30 0.23 0.24 0.20 0.20 0.20 0.21 0.19 0.19 0.18 0.17 0.18 0.19 0.19 0.20 0.19 0.20 0.18 0.20 0.19 0.16 0.16 0.17 0.16 0.13 0.16 0.24 0.36 0.35 0.42 0.51 0.60 0.62 0.68 0.79 0.80 0.85 0.85
0.50 0.50 0.51 0.51 0.51 0.50 0.49 0.49 0.48 0.47 0.47 0.45 0.45 0.45 0.46 0.45 0.43 0.42 0.43 0.44 0.47 0.49 0.50 0.52 0.49 0.45 0.41 0.36 0.30 0.23 0.35 0.39 0.40 0.39 0.37 0.37 0.37 0.46 0.50 0.49 0.49 0.47 0.44 0.36 0.37 0.41 0.42 0.40 0.40 0.33 0.22 0.28 0.20 0.23 0.20 0.23 0.23 0.20 0.20 0.16 0.17 0.17 0.15 0.17 0.16 0.18 0.20 0.18 0.20 0.18 0.15 0.12 0.13 0.13 0.15 0.16 0.26 0.35 0.36 0.41 0.49 0.57 0.63 0.67 0.74 0.83 0.84 0.83
0.50 0.51 0.51 0.51 0.50 0.50 0.50 0.50 0.50 0.49 0.48 0.46 0.46 0.46 0.45 0.43 0.41 0.40 0.42 0.43 0.46 0.48 0.50 0.52 0.52 0.44 0.37 0.25 0.27 0.33 0.41 0.41 0.34 0.33 0.35 0.38 0.39 0.43 0.46 0.47 0.47 0.48 0.47 0.42 0.39 0.43 0.44 0.42 0.39 0.31 0.32 0.28 0.23 0.18 0.24 0.25 0.22 0.22 0.20 0.17 0.15 0.15 0.14 0.16 0.17 0.18 0.18 0.19 0.21 0.20 0.11 0.09 0.11 0.14 0.15 0.16 0.22 0.36 0.38 0.42 0.50 0.57 0.63 0.67 0.71 0.74 0.81 0.87
0.52 0.52 0.52 0.52 0.51 0.52 0.51 0.52 0.51 0.51 0.48 0.46 0.46 0.45 0.43 0.41 0.40 0.40 0.43 0.45 0.46 0.47 0.50 0.52 0.52 0.43 0.34 0.24 0.28 0.34 0.43 0.41 0.38 0.33 0.31 0.39 0.36 0.35 0.44 0.48 0.49 0.49 0.51 0.48 0.47 0.47 0.44 0.45 0.41 0.35 0.36 0.29 0.24 0.31 0.24 0.25 0.22 0.16 0.18 0.18 0.13 0.12 0.11 0.16 0.16 0.16 0.15 0.18 0.19 0.19 0.11 0.10 0.12 0.14 0.15 0.16 0.23 0.30 0.32 0.41 0.49 0.55 0.61 0.66 0.70 0.73 0.74 0.85
0.53 0.53 0.53 0.53 0.53 0.51 0.51 0.50 0.50 0.50 0.48 0.48 0.46 0.45 0.43 0.38 0.37 0.39 0.43 0.44 0.44 0.48 0.49 0.51 0.45 0.36 0.26 0.24 0.34 0.35 0.39 0.41 0.33 0.30 0.37 0.35 0.36 0.33 0.36 0.46 0.46 0.48 0.50 0.50 0.49 0.49 0.48 0.44 0.39 0.31 0.26 0.32 0.31 0.25 0.19 0.21 0.22 0.18 0.14 0.11 0.14 0.11 0.12 0.14 0.17 0.16 0.13 0.16 0.18 0.17 0.12 0.11 0.12 0.14 0.15 0.16 0.22 0.29 0.31 0.41 0.48 0.54 0.60 0.64 0.69 0.73 0.77 0.81
0.53 0.51 0.53 0.52 0.51 0.51 0.52 0.52 0.51 0.51 0.50 0.50 0.49 0.46 0.42 0.39 0.36 0.40 0.43 0.43 0.44 0.47 0.49 0.41 0.39 0.33 0.24 0.18 0.21 0.39 0.34 0.25 0.25 0.32 0.35 0.40 0.38 0.32 0.38 0.40 0.48 0.48 0.50 0.50 0.54 0.52 0.48 0.43 0.32 0.30 0.28 0.27 0.24 0.22 0.19 0.17 0.18 0.19 0.13 0.11 0.11 0.12 0.12 0.12 0.14 0.16 0.16 0.15 0.16 0.15 0.12 0.13 0.12 0.14 0.14 0.17 0.20 0.25 0.28 0.40 0.49 0.53 0.60 0.65 0.69 0.73 0.77 0.80
0.53 0.53 0.53 0.54 0.56 0.57 0.56 0.56 0.55 0.54 0.54 0.52 0.51 0.47 0.43 0.37 0.38 0.42 0.44 0.44 0.45 0.50 0.42 0.31 0.38 0.41 0.17 0.30 0.36 0.22 0.25 0.29 0.35 0.35 0.38 0.42 0.41 0.38 0.36 0.37 0.38 0.42 0.48 0.51 0.50 0.49 0.46 0.38 0.36 0.32 0.30 0.24 0.22 0.22 0.16 0.14 0.13 0.15 0.17 0.12 0.13 0.11 0.12 0.11 0.14 0.15 0.16 0.15 0.13 0.15 0.13 0.13 0.13 0.14 0.14 0.15 0.21 0.22 0.24 0.34 0.45 0.54 0.61 0.66 0.70 0.74 0.75 0.74
0.54 0.55 0.57 0.58 0.58 0.58 0.58 0.57 0.56 0.56 0.57 0.57 0.54 0.49 0.41 0.38 0.40 0.42 0.44 0.45 0.47 0.45 0.43 0.48 0.44 0.34 0.23 0.34 0.21 0.20 0.32 0.30 0.34 0.38 0.37 0.40 0.42 0.38 0.37 0.34 0.38 0.41 0.44 0.43 0.47 0.40 0.43 0.35 0.35 0.25 0.25 0.23 0.21 0.19 0.14 0.10 0.11 0.13 0.15 0.14 0.12 0.13 0.13 0.11 0.10 0.13 0.15 0.15 0.13 0.13 0.13 0.13 0.13 0.14 0.15 0.15 0.18 0.24 0.23 0.27 0.38 0.49 0.57 0.65 0.69 0.71 0.71 0.69
0.56 0.57 0.59 0.59 0.58 0.58 0.57 0.56 0.54 0.55 0.56 0.58 0.57 0.52 0.45 0.42 0.40 0.43 0.38 0.40 0.33 0.27 0.22 0.26 0.29 0.14 0.08 0.19 0.24 0.28 0.30 0.34 0.36 0.36 0.31 0.35 0.40 0.40 0.40 0.41 0.39 0.37 0.35 0.36 0.37 0.39 0.40 0.35 0.33 0.26 0.20 0.19 0.18 0.17 0.16 0.17 0.17 0.15 0.16 0.15 0.13 0.11 0.11 0.11 0.12 0.14 0.14 0.13 0.12 0.12 0.12 0.13 0.13 0.13 0.15 0.15 0.16 0.21 0.24 0.34 0.42 0.49 0.57 0.63 0.65 0.68 0.67 0.65
0.57 0.59 0.58 0.58 0.58 0.57 0.56 0.55 0.54 0.55 0.56 0.54 0.51 0.44 0.36 0.25 0.23 0.20 0.33 0.35 0.27 0.26 0.27 0.29 0.34 0.29 0.26 0.24 0.23 0.29 0.37 0.38 0.29 0.31 0.33 0.37 0.39 0.41 0.39 0.39 0.34 0.36 0.33 0.31 0.34 0.37 0.39 0.29 0.24 0.21 0.20 0.21 0.22 0.21 0.20 0.21 0.21 0.18 0.17 0.17 0.14 0.13 0.12 0.13 0.13 0.15 0.16 0.14 0.13 0.13 0.13 0.13 0.13 0.14 0.15 0.15 0.16 0.17 0.23 0.30 0.38 0.44 0.50 0.58 0.63 0.66 0.64 0.63
0.57 0.57 0.57 0.56 0.57 0.57 0.57 0.55 0.56 0.57 0.58 0.55 0.49 0.36 0.23 0.23 0.18 0.15 0.24 0.28 0.33 0.35 0.32 0.31 0.32 0.28 0.23 0.27 0.28 0.27 0.22 0.23 0.32 0.30 0.32 0.41 0.43 0.39 0.33 0.34 0.28 0.24 0.29 0.34 0.34 0.39 0.37 0.27 0.24 0.25 0.26 0.25 0.24 0.24 0.22 0.22 0.23 0.19 0.16 0.16 0.15 0.14 0.12 0.13 0.13 0.15 0.16 0.13 0.13 0.14 0.14 0.13 0.13 0.14 0.15 0.16 0.16 0.15 0.17 0.24 0.33 0.40 0.48 0.54 0.57 0.60 0.61 0.64
0.56 0.56 0.55 0.57 0.56 0.57 0.55 0.57 0.56 0.59 0.58 0.53 0.44 0.32 0.32 0.32 0.37 0.42 0.39 0.21 0.30 0.35 0.34 0.31 0.34 0.28 0.31 0.30 0.29 0.32 0.31 0.22 0.21 0.27 0.33 0.36 0.34 0.30 0.31 0.30 0.24 0.20 0.28 0.33 0.35 0.32 0.28 0.24 0.26 0.30 0.30 0.28 0.26 0.25 0.24 0.21 0.21 0.20 0.17 0.16 0.15 0.15 0.15 0.15 0.15 0.16 0.16 0.14 0.13 0.14 0.13 0.13 0.14 0.14 0.16 0.16 0.16 0.16 0.17 0.19 0.25 0.33 0.41 0.49 0.56 0.58 0.60 0.63
0.56 0.55 0.57 0.55 0.56 0.56 0.56 0.57 0.58 0.59 0.50 0.41 0.35 0.35 0.34 0.44 0.51 0.57 0.50 0.33 0.23 0.33 0.31 0.30 0.26 0.25 0.25 0.33 0.36 0.37 0.24 0.19 0.14 0.20 0.28 0.33 0.28 0.29 0.30 0.27 0.24 0.24 0.27 0.29 0.26 0.26 0.24 0.25 0.31 0.33 0.32 0.28 0.26 0.25 0.24 0.22 0.22 0.21 0.18 0.16 0.14 0.16 0.14 0.11 0.14 0.16 0.16 0.15 0.13 0.14 0.13 0.13 0.14 0.15 0.15 0.17 0.17 0.17 0.18 0.18 0.23 0.32 0.35 0.43 0.47 0.50 0.51 0.51
0.56 0.56 0.57 0.57 0.57 0.57 0.58 0.57 0.59 0.53 0.44 0.40 0.38 0.37 0.47 0.54 0.56 0.54 0.40 0.25 0.20 0.24 0.29 0.27 0.28 0.27 0.28 0.28 0.38 0.34 0.27 0.24 0.23 0.17 0.29 0.34 0.27 0.29 0.29 0.28 0.25 0.25 0.23 0.26 0.26 0.26 0.25 0.28 0.34 0.33 0.32 0.29 0.25 0.25 0.23 0.21 0.18 0.21 0.21 0.18 0.17 0.16 0.16 0.14 0.14 0.15 0.17 0.16 0.16 0.14 0.13 0.12 0.13 0.12 0.13 0.15 0.17 0.17 0.17 0.17 0.20 0.32 0.38 0.42 0.47 0.50 0.49 0.45
0.57 0.58 0.57 0.57 0.57 0.59 0.57 0.58 0.49 0.45 0.48 0.43 0.39 0.48 0.53 0.57 0.58 0.57 0.36 0.25 0.25 0.25 0.36 0.32 0.40 0.36 0.37 0.47 0.45 0.33 0.32 0.30 0.26 0.26 0.30 0.33 0.32 0.31 0.28 0.34 0.29 0.22 0.23 0.27 0.28 0.27 0.27 0.31 0.34 0.31 0.31 0.29 0.27 0.24 0.23 0.22 0.19 0.19 0.22 0.22 0.19 0.18 0.17 0.16 0.16 0.14 0.13 0.13 0.15 0.14 0.10 0.09 0.12 0.12 0.13 0.14 0.15 0.15 0.17 0.17 0.17 0.24 0.37 0.46 0.48 0.47 0.51 0.54
0.59 0.58 0.57 0.58 0.59 0.59 0.60 0.45 0.43 0.50 0.46 0.36 0.40 0.50 0.56 0.59 0.60 0.56 0.35 0.22 0.16 0.21 0.32 0.25 0.43 0.33 0.54 0.41 0.47 0.39 0.37 0.23 0.28 0.26 0.29 0.33 0.42 0.35 0.34 0.30 0.30 0.20 0.24 0.27 0.27 0.28 0.28 0.33 0.32 0.30 0.29 0.29 0.27 0.25 0.26 0.24 0.19 0.18 0.19 0.25 0.24 0.20 0.18 0.17 0.15 0.14 0.12 0.10 0.14 0.16 0.10 0.08 0.11 0.11 0.12 0.14 0.14 0.14 0.17 0.18 0.18 0.25 0.34 0.39 0.41 0.42 0.45 0.48
0.60 0.59 0.58 0.58 0.58 0.60 0.46 0.35 0.52 0.51 0.37 0.37 0.50 0.56 0.58 0.57 0.59 0.50 0.28 0.17 0.15 0.28 0.25 0.37 0.40 0.42 0.49 0.45 0.46 0.45 0.19 0.19 0.28 0.28 0.27 0.35 0.32 0.43 0.31 0.26 0.30 0.29 0.29 0.30 0.28 0.24 0.31 0.30 0.30 0.31 0.29 0.27 0.26 0.24 0.27 0.25 0.21 0.18 0.24 0.23 0.24 0.22 0.19 0.17 0.16 0.15 0.14 0.16 0.16 0.16 0.14 0.10 0.09 0.10 0.13 0.14 0.13 0.14 0.15 0.17 0.20 0.25 0.31 0.34 0.37 0.40 0.42 0.46
0.61 0.60 0.59 0.58 0.58 0.59 0.49 0.51 0.48 0.41 0.42 0.49 0.57 0.60 0.59 0.58 0.55 0.46 0.24 0.11 0.10 0.32 0.25 0.36 0.40 0.61 0.49 0.49 0.50 0.37 0.29 0.33 0.21 0.22 0.29 0.35 0.38 0.36 0.32 0.29 0.26 0.24 0.27 0.26 0.17 0.25 0.31 0.29 0.29 0.28 0.28 0.27 0.25 0.26 0.29 0.29 0.23 0.23 0.26 0.25 0.22 0.22 0.21 0.19 0.17 0.15 0.15 0.14 0.11 0.13 0.15 0.11 0.09 0.10 0.13 0.14 0.11 0.12 0.13 0.15 0.17 0.22 0.27 0.29 0.32 0.37 0.41 0.44
0.62 0.61 0.59 0.57 0.58 0.58 0.58 0.51 0.48 0.43 0.53 0.58 0.62 0.60 0.60 0.57 0.44 0.29 0.19 0.11 0.22 0.28 0.50 0.32 0.62 0.51 0.47 0.48 0.41 0.42 0.38 0.36 0.23 0.28 0.31 0.37 0.40 0.39 0.28 0.32 0.32 0.28 0.28 0.25 0.20 0.25 0.30 0.31 0.31 0.30 0.28 0.25 0.29 0.31 0.31 0.30 0.24 0.26 0.29 0.27 0.24 0.23 0.22 0.20 0.18 0.16 0.15 0.13 0.10 0.11 0.14 0.10 0.09 0.11 0.11 0.16 0.12 0.11 0.12 0.14 0.15 0.19 0.23 0.27 0.31 0.37 0.41 0.46
0.64 0.63 0.60 0.58 0.56 0.53 0.51 0.55 0.48 0.56 0.60 0.62 0.62 0.62 0.59 0.47 0.33 0.20 0.14 0.10 0.30 0.20 0.34 0.38 0.39 0.33 0.43 0.35 0.34 0.39 0.33 0.32 0.32 0.30 0.30 0.30 0.34 0.40 0.39 0.42 0.34 0.28 0.25 0.28 0.26 0.26 0.31 0.34 0.36 0.31 0.27 0.30 0.32 0.33 0.33 0.32 0.30 0.31 0.29 0.25 0.23 0.22 0.21 0.21 0.19 0.18 0.15 0.11 0.10 0.13 0.14 0.12 0.09 0.10 0.10 0.10 0.11 0.11 0.12 0.15 0.19 0.24 0.29 0.32 0.34 0.36 0.40 0.43
0.65 0.64 0.61 0.60 0.47 0.49 0.50 0.41 0.48 0.59 0.60 0.61 0.62 0.56 0.47 0.36 0.23 0.16 0.11 0.16 0.30 0.27 0.37 0.37 0.32 0.42 0.35 0.31 0.27 0.36 0.33 0.32 0.27 0.27 0.23 0.32 0.31 0.35 0.36 0.31 0.36 0.28 0.25 0.25 0.24 0.25 0.27 0.30 0.30 0.31 0.33 0.33 0.34 0.31 0.34 0.35 0.33 0.29 0.26 0.23 0.21 0.19 0.20 0.18 0.17 0.17 0.12 0.10 0.12 0.14 0.14 0.14 0.09 0.09 0.11 0.13 0.13 0.16 0.14 0.14 0.15 0.19 0.23 0.26 0.31 0.37 0.41 0.43
0.65 0.65 0.65 0.60 0.57 0.59 0.42 0.38 0.53 0.62 0.62 0.63 0.56 0.44 0.35 0.20 0.24 0.15 0.15 0.33 0.18 0.24 0.28 0.28 0.34 0.36 0.34 0.34 0.32 0.31 0.27 0.28 0.29 0.25 0.22 0.24 0.27 0.27 0.28 0.23 0.26 0.19 0.18 0.19 0.18 0.23 0.22 0.25 0.29 0.31 0.34 0.32 0.30 0.29 0.31 0.33 0.32 0.29 0.25 0.23 0.17 0.15 0.15 0.13 0.14 0.11 0.11 0.10 0.13 0.15 0.15 0.13 0.11 0.12 0.12 0.13 0.13 0.14 0.16 0.16 0.17 0.19 0.22 0.27 0.32 0.37 0.43 0.47
0.65 0.65 0.66 0.64 0.62 0.54 0.55 0.59 0.63 0.64 0.65 0.60 0.48 0.42 0.28 0.19 0.14 0.19 0.21 0.25 0.20 0.31 0.28 0.38 0.34 0.35 0.35 0.32 0.29 0.31 0.34 0.24 0.27 0.26 0.26 0.26 0.27 0.29 0.32 0.29 0.29 0.23 0.15 0.20 0.19 0.18 0.19 0.25 0.27 0.28 0.30 0.32 0.31 0.25 0.26 0.27 0.30 0.27 0.23 0.20 0.16 0.13 0.12 0.10 0.11 0.13 0.12 0.14 0.17 0.15 0.16 0.12 0.14 0.14 0.14 0.14 0.14 0.15 0.15 0.17 0.20 0.21 0.24 0.29 0.32 0.38 0.45 0.48
0.66 0.67 0.62 0.63 0.62 0.61 0.62 0.65 0.65 0.65 0.59 0.55 0.44 0.33 0.27 0.18 0.17 0.28 0.24 0.27 0.26 0.35 0.36 0.33 0.36 0.36 0.35 0.29 0.30 0.32 0.25 0.30 0.27 0.25 0.26 0.24 0.26 0.25 0.28 0.31 0.31 0.25 0.23 0.21 0.16 0.16 0.15 0.17 0.22 0.26 0.24 0.30 0.29 0.28 0.27 0.26 0.28 0.27 0.26 0.22 0.17 0.15 0.12 0.10 0.11 0.10 0.11 0.12 0.15 0.17 0.13 0.11 0.11 0.12 0.15 0.15 0.16 0.16 0.17 0.18 0.23 0.27 0.31 0.35 0.42 0.47 0.50 0.51
0.67 0.66 0.65 0.64 0.63 0.64 0.64 0.65 0.66 0.67 0.59 0.49 0.38 0.29 0.19 0.18 0.23 0.22 0.25 0.28 0.32 0.35 0.32 0.38 0.32 0.32 0.29 0.31 0.33 0.33 0.32 0.24 0.29 0.26 0.24 0.24 0.22 0.26 0.25 0.26 0.30 0.29 0.28 0.19 0.19 0.17 0.17 0.17 0.23 0.28 0.28 0.30 0.27 0.29 0.31 0.30 0.28 0.29 0.28 0.26 0.20 0.16 0.17 0.12 0.14 0.13 0.13 0.13 0.13 0.13 0.12 0.14 0.13 0.17 0.17 0.22 0.21 0.20 0.21 0.23 0.26 0.28 0.35 0.39 0.39 0.40 0.42 0.47
0.64 0.61 0.65 0.58 0.59 0.62 0.67 0.66 0.67 0.65 0.54 0.45 0.33 0.25 0.21 0.25 0.23 0.30 0.28 0.38 0.36 0.31 0.31 0.33 0.32 0.28 0.26 0.27 0.32 0.29 0.35 0.27 0.27 0.26 0.24 0.25 0.26 0.26 0.29 0.29 0.28 0.30 0.25 0.19 0.20 0.15 0.19 0.17 0.23 0.26 0.29 0.29 0.28 0.30 0.29 0.31 0.21 0.26 0.27 0.21 0.20 0.23 0.20 0.17 0.15 0.17 0.15 0.14 0.11 0.15 0.13 0.14 0.18 0.17 0.18 0.21 0.19 0.22 0.27 0.28 0.29 0.31 0.36 0.38 0.35 0.38 0.43 0.49
0.57 0.61 0.53 0.56 0.59 0.66 0.68 0.70 0.66 0.60 0.54 0.43 0.32 0.24 0.29 0.31 0.34 0.34 0.36 0.35 0.36 0.37 0.33 0.24 0.24 0.26 0.24 0.23 0.27 0.27 0.29 0.31 0.27 0.25 0.20 0.25 0.24 0.28 0.28 0.29 0.32 0.30 0.30 0.26 0.20 0.23 0.16 0.18 0.24 0.24 0.24 0.29 0.31 0.30 0.30 0.30 0.30 0.28 0.22 0.24 0.26 0.27 0.22 0.17 0.13 0.15 0.13 0.11 0.11 0.14 0.11 0.12 0.12 0.11 0.17 0.19 0.17 0.23 0.26 0.29 0.31 0.33 0.37 0.34 0.34 0.38 0.43 0.50
0.55 0.57 0.57 0.55 0.61 0.69 0.70 0.70 0.66 0.57 0.49 0.40 0.29 0.30 0.36 0.31 0.40 0.39 0.41 0.40 0.39 0.39 0.31 0.28 0.26 0.33 0.25 0.27 0.25 0.29 0.31 0.28 0.26 0.25 0.21 0.22 0.20 0.31 0.29 0.28 0.32 0.30 0.31 0.32 0.23 0.21 0.22 0.17 0.22 0.25 0.25 0.27 0.31 0.31 0.28 0.30 0.30 0.26 0.24 0.29 0.22 0.17 0.16 0.18 0.16 0.13 0.11 0.10 0.11 0.13 0.13 0.12 0.13 0.13 0.15 0.15 0.15 0.17 0.24 0.30 0.31 0.30 0.32 0.32 0.35 0.41 0.48 0.56
0.55 0.53 0.45 0.54 0.68 0.70 0.70 0.70 0.63 0.52 0.42 0.32 0.29 0.27 0.34 0.37 0.41 0.40 0.44 0.44 0.43 0.38 0.31 0.31 0.26 0.30 0.31 0.27 0.28 0.31 0.31 0.25 0.27 0.22 0.19 0.21 0.18 0.26 0.28 0.30 0.28 0.32 0.32 0.32 0.25 0.25 0.24 0.17 0.20 0.26 0.25 0.26 0.28 0.27 0.21 0.24 0.28 0.29 0.30 0.26 0.27 0.22 0.18 0.15 0.15 0.18 0.15 0.11 0.10 0.11 0.13 0.11 0.14 0.14 0.17 0.15 0.16 0.17 0.23 0.27 0.27 0.28 0.30 0.34 0.38 0.42 0.46 0.50
0.48 0.44 0.42 0.61 0.68 0.72 0.72 0.66 0.53 0.48 0.38 0.28 0.31 0.32 0.39 0.36 0.40 0.45 0.47 0.46 0.39 0.37 0.33 0.31 0.33 0.28 0.31 0.30 0.32 0.28 0.31 0.30 0.27 0.25 0.25 0.22 0.20 0.26 0.26 0.31 0.29 0.29 0.32 0.32 0.28 0.29 0.22 0.26 0.18 0.22 0.26 0.26 0.21 0.24 0.22 0.23 0.23 0.23 0.23 0.22 0.23 0.22 0.23 0.19 0.18 0.17 0.15 0.13 0.12 0.11 0.10 0.12 0.14 0.17 0.19 0.19 0.19 0.21 0.24 0.24 0.27 0.30 0.34 0.39 0.43 0.46 0.51 0.56
0.51 0.42 0.44 0.63 0.68 0.72 0.69 0.56 0.43 0.37 0.35 0.38 0.39 0.36 0.39 0.37 0.43 0.44 0.49 0.50 0.45 0.49 0.39 0.35 0.33 0.30 0.31 0.30 0.29 0.34 0.30 0.32 0.30 0.27 0.26 0.19 0.22 0.17 0.26 0.27 0.30 0.29 0.32 0.31 0.28 0.28 0.24 0.23 0.20 0.22 0.21 0.20 0.20 0.25 0.26 0.26 0.26 0.23 0.23 0.21 0.22 0.20 0.18 0.15 0.14 0.18 0.17 0.14 0.13 0.11 0.10 0.14 0.16 0.20 0.20 0.21 0.24 0.26 0.27 0.26 0.26 0.29 0.34 0.39 0.45 0.51 0.58 0.61
0.41 0.32 0.39 0.63 0.69 0.70 0.56 0.38 0.39 0.43 0.39 0.34 0.34 0.40 0.38 0.47 0.44 0.44 0.46 0.49 0.47 0.42 0.49 0.40 0.38 0.36 0.36 0.33 0.32 0.32 0.32 0.29 0.31 0.29 0.30 0.22 0.24 0.22 0.23 0.29 0.30 0.31 0.29 0.25 0.26 0.29 0.29 0.27 0.24 0.20 0.20 0.21 0.24 0.26 0.28 0.29 0.29 0.26 0.25 0.23 0.24 0.23 0.21 0.17 0.13 0.14 0.16 0.16 0.18 0.16 0.12 0.13 0.18 0.22 0.25 0.25 0.27 0.29 0.30 0.33 0.29 0.33 0.39 0.45 0.52 0.59 0.64 0.68
0.38 0.35 0.53 0.62 0.69 0.65 0.49 0.36 0.40 0.39 0.36 0.40 0.47 0.45 0.48 0.45 0.44 0.46 0.44 0.46 0.42 0.45 0.42 0.39 0.37 0.38 0.40 0.36 0.34 0.32 0.33 0.29 0.30 0.29 0.31 0.31 0.32 0.31 0.27 0.27 0.30 0.31 0.32 0.29 0.29 0.30 0.32 0.25 0.22 0.22 0.25 0.25 0.27 0.27 0.27 0.29 0.29 0.26 0.26 0.26 0.24 0.21 0.21 0.19 0.17 0.18 0.15 0.16 0.15 0.15 0.12 0.14 0.19 0.26 0.29 0.35 0.35 0.33 0.33 0.33 0.32 0.35 0.41 0.46 0.50 0.57 0.63 0.68
0.40 0.40 0.46 0.59 0.68 0.63 0.44 0.29 0.30 0.34 0.37 0.41 0.42 0.41 0.47 0.45 0.45 0.43 0.43 0.45 0.43 0.41 0.38 0.39 0.43 0.47 0.38 0.43 0.38 0.32 0.35 0.25 0.31 0.31 0.30 0.35 0.33 0.43 0.37 0.29 0.29 0.28 0.28 0.26 0.25 0.32 0.24 0.25 0.24 0.21 0.19 0.21 0.22 0.24 0.25 0.28 0.28 0.25 0.23 0.24 0.24 0.23 0.23 0.23 0.21 0.21 0.16 0.15 0.16 0.15 0.12 0.14 0.20 0.28 0.32 0.35 0.36 0.34 0.32 0.34 0.37 0.37 0.42 0.46 0.50 0.56 0.63 0.69
0.41 0.48 0.47 0.51 0.61 0.58 0.40 0.42 0.38 0.36 0.37 0.37 0.37 0.37 0.41 0.43 0.47 0.47 0.46 0.43 0.49 0.46 0.44 0.40 0.44 0.47 0.42 0.43 0.39 0.40 0.38 0.34 0.28 0.34 0.37 0.36 0.36 0.43 0.42 0.38 0.29 0.28 0.30 0.32 0.31 0.35 0.28 0.27 0.25 0.20 0.16 0.15 0.15 0.16 0.17 0.20 0.22 0.24 0.25 0.25 0.25 0.23 0.22 0.21 0.17 0.19 0.16 0.18 0.17 0.15 0.14 0.18 0.25 0.26 0.28 0.31 0.31 0.32 0.37 0.36 0.39 0.42 0.45 0.47 0.50 0.55 0.62 0.67
0.35 0.28 0.39 0.43 0.50 0.51 0.50 0.53 0.48 0.42 0.39 0.38 0.36 0.39 0.43 0.39 0.45 0.49 0.50 0.47 0.51 0.49 0.48 0.46 0.48 0.49 0.42 0.41 0.37 0.36 0.35 0.39 0.33 0.31 0.33 0.33 0.37 0.40 0.43 0.43 0.37 0.30 0.30 0.32 0.35 0.34 0.29 0.30 0.29 0.26 0.23 0.18 0.20 0.22 0.26 0.25 0.24 0.22 0.23 0.24 0.24 0.24 0.23 0.22 0.21 0.18 0.16 0.19 0.17 0.17 0.16 0.19 0.21 0.24 0.25 0.28 0.31 0.28 0.31 0.36 0.38 0.40 0.46 0.51 0.54 0.56 0.61 0.67
0.42 0.33 0.34 0.31 0.43 0.46 0.43 0.47 0.45 0.45 0.39 0.44 0.35 0.41 0.39 0.41 0.43 0.44 0.51 0.41 0.50 0.48 0.46 0.44 0.43 0.41 0.41 0.40 0.36 0.37 0.37 0.36 0.39 0.36 0.35 0.36 0.40 0.43 0.44 0.41 0.40 0.36 0.32 0.32 0.39 0.34 0.31 0.28 0.29 0.29 0.28 0.26 0.26 0.25 0.27 0.26 0.23 0.23 0.23 0.23 0.24 0.23 0.23 0.21 0.19 0.17 0.20 0.19 0.16 0.19 0.19 0.17 0.18 0.20 0.27 0.33 0.34 0.33 0.33 0.35 0.37 0.41 0.47 0.51 0.54 0.57 0.63 0.72
0.32 0.38 0.44 0.45 0.36 0.32 0.35 0.38 0.45 0.43 0.45 0.46 0.41 0.46 0.41 0.41 0.42 0.38 0.45 0.50 0.50 0.50 0.41 0.42 0.44 0.45 0.42 0.39 0.37 0.31 0.35 0.35 0.37 0.33 0.37 0.42 0.39 0.38 0.32 0.37 0.34 0.34 0.33 0.34 0.40 0.35 0.33 0.29 0.29 0.30 0.30 0.33 0.31 0.29 0.28 0.26 0.25 0.24 0.24 0.24 0.23 0.23 0.23 0.20 0.20 0.20 0.21 0.18 0.17 0.21 0.22 0.19 0.26 0.32 0.34 0.38 0.42 0.42 0.41 0.41 0.45 0.49 0.51 0.55 0.57 0.57 0.60 0.69
0.44 0.44 0.44 0.50 0.37 0.41 0.41 0.42 0.45 0.43 0.42 0.43 0.42 0.43 0.40 0.41 0.40 0.44 0.43 0.44 0.47 0.45 0.46 0.33 0.38 0.42 0.43 0.43 0.39 0.34 0.36 0.30 0.32 0.37 0.40 0.36 0.34 0.31 0.26 0.30 0.33 0.35 0.33 0.33 0.38 0.40 0.34 0.29 0.30 0.32 0.32 0.33 0.29 0.29 0.28 0.26 0.26 0.25 0.24 0.24 0.23 0.23 0.22 0.22 0.21 0.22 0.21 0.20 0.21 0.23 0.26 0.25 0.31 0.31 0.36 0.45 0.51 0.53 0.54 0.55 0.54 0.53 0.54 0.57 0.59 0.58 0.60 0.68
0.36 0.37 0.37 0.47 0.44 0.42 0.43 0.43 0.41 0.41 0.37 0.41 0.37 0.39 0.42 0.41 0.40 0.44 0.47 0.45 0.40 0.42 0.49 0.39 0.39 0.42 0.45 0.43 0.41 0.36 0.39 0.43 0.39 0.33 0.36 0.36 0.34 0.37 0.32 0.35 0.31 0.34 0.35 0.30 0.36 0.39 0.33 0.29 0.35 0.34 0.30 0.29 0.30 0.29 0.28 0.27 0.26 0.25 0.27 0.26 0.25 0.23 0.23 0.24 0.23 0.23 0.23 0.22 0.22 0.23 0.23 0.21 0.27 0.32 0.39 0.52 0.55 0.58 0.60 0.55 0.56 0.60 0.61 0.61 0.61 0.60 0.61 0.67
0.48 0.51 0.49 0.40 0.36 0.39 0.42 0.41 0.38 0.37 0.34 0.37 0.36 0.38 0.42 0.43 0.42 0.46 0.45 0.52 0.46 0.41 0.44 0.40 0.42 0.42 0.44 0.42 0.41 0.41 0.48 0.48 0.47 0.44 0.43 0.40 0.32 0.40 0.36 0.34 0.42 0.31 0.33 0.29 0.33 0.39 0.37 0.33 0.37 0.33 0.28 0.27 0.30 0.29 0.29 0.29 0.27 0.27 0.27 0.28 0.28 0.24 0.21 0.23 0.21 0.23 0.21 0.20 0.22 0.22 0.21 0.19 0.24 0.36 0.41 0.50 0.49 0.51 0.51 0.57 0.60 0.66 0.68 0.66 0.62 0.62 0.63 0.68
0.54 0.56 0.55 0.46 0.35 0.41 0.37 0.40 0.39 0.37 0.31 0.36 0.38 0.39 0.40 0.42 0.47 0.48 0.42 0.52 0.55 0.53 0.50 0.47 0.46 0.43 0.40 0.40 0.39 0.44 0.51 0.54 0.53 0.49 0.50 0.50 0.51 0.49 0.48 0.45 0.43 0.36 0.31 0.32 0.35 0.33 0.35 0.34 0.31 0.31 0.28 0.27 0.31 0.32 0.29 0.27 0.25 0.23 0.26 0.31 0.33 0.29 0.28 0.30 0.30 0.29 0.26 0.25 0.21 0.19 0.19 0.23 0.28 0.37 0.35 0.40 0.45 0.49 0.53 0.56 0.63 0.70 0.76 0.74 0.70 0.67 0.68 0.72
Wind_Speed
27 27 27 27 27 28 28 28 28 28 29 29 29 30 30 31 31 32 33 33 34 34 35 35 35 36 36 36 36 36 36 36 35 35 35 34 33 33 33 34 35 35 33 31 31 30 30 30 30 30 29 30 30 30 30 30 29 29 28 30 31 29 28 27 24 23 21 18 17 18 18 18 18 18 19 19 19 19 20 20 19 20 20 20 21 22 23 24
26 26 27 27 27 28 28 28 29 29 29 29 29 30 30 30 31 31 32 33 33 33 34 35 35 35 36 36 36 36 36 36 36 36 35 34 33 32 32 32 34 36 34 32 31 30 30 30 30 30 30 30 30 30 30 30 30 29 28 30 32 29 27 25 24 23 22 19 18 19 19 17 18 18 19 19 19 18 19 19 18 18 17 17 18 20 23 24
26 26 27 27 27 28 28 29 29 29 30 30 30 30 30 31 31 31 32 32 33 33 33 34 35 35 35 35 36 36 35 35 35 34 33 31 31 31 30 30 32 35 34 33 32 31 30 29 29 30 30 30 30 30 30 30 30 30 29 31 31 28 27 26 25 24 23 20 19 20 20 19 19 19 19 20 19 18 19 19 18 17 17 16 17 20 23 24
27 27 27 28 28 28 29 29 29 30 30 30 30 31 31 31 31 31 32 32 33 33 33 33 34 34 34 35 35 35 34 34 33 32 30 28 29 29 29 29 30 33 34 33 33 32 31 29 29 29 30 30 31 30 30 31 30 29 30 30 29 27 27 27 26 25 23 22 21 21 21 20 20 20 20 20 19 18 18 19 19 19 18 17 17 20 23 24
27 28 28 28 29 29 30 30 30 31 31 31 31 31 32 32 32 32 32 33 33 33 34 33 33 34 34 34 34 33 32 32 31 30 30 29 29 29 28 27 29 32 32 33 33 32 31 30 28 29 29 29 30 31 31 32 30 29 30 29 27 27 27 27 26 25 24 23 23 22 22 22 21 21 21 21 20 19 18 18 18 19 20 19 18 20 22 24
28 29 29 29 30 30 31 31 32 32 32 33 33 33 33 33 33 33 33 33 34 34 34 34 34 34 34 33 33 32 31 31 29 30 31 30 29 29 27 27 28 31 32 32 32 32 31 30 29 29 29 29 30 31 31 32 31 30 29 29 29 28 27 25 25 25 24 24 24 23 23 22 21 21 22 22 22 20 19 19 19 19 20 21 19 20 22 24
30 30 30 31 31 31 32 32 33 33 34 34 34 34 34 34 34 34 34 34 34 34 34 35 35 34 34 33 33 32 32 32 32 32 32 31 30 29 28 28 28 30 31 32 32 32 31 31 31 30 29 29 30 31 30 31 32 32 30 28 29 30 28 26 25 25 24 25 25 24 23 22 22 22 22 23 23 21 20 20 20 19 20 20 20 20 21 22
31 31 31 32 32 33 33 33 34 34 35 35 35 36 36 36 36 36 36 35 35 35 35 35 35 35 34 33 32 32 33 33 33 34 34 33 31 30 29 29 29 29 30 32 32 32 32 32 32 31 30 30 29 29 30 30 31 33 31 28 28 29 29 28 27 26 26 26 26 25 25 25 24 24 23 24 23 22 21 19 19 18 19 21 21 21 21 21
31 32 32 33 33 33 34 34 35 35 36 36 37 37 37 38 37 37 37 37 37 36 36 35 36 35 35 33 33 32 32 32 33 33 33 32 32 31 30 30 30 30 30 31 32 33 33 32 33 32 30 30 30 29 29 31 31 32 32 30 29 28 28 27 27 26 26 26 25 25 26 26 25 24 24 24 23 20 19 18 18 18 20 21 21 21 21 21
32 32 32 33 33 34 34 35 35 36 37 37 38 38 39 39 39 39 38 38 38 38 37 37 36 36 36 35 34 33 30 30 31 31 31 31 32 33 32 32 31 31 31 32 32 33 33 33 32 32 31 30 30 30 30 31 31 30 31 31 31 30 29 28 27 27 26 26 26 26 26 26 26 24 24 24 23 20 18 18 18 19 20 21 21 21 20 20
32 32 33 33 34 34 35 35 36 37 37 38 38 39 39 39 39 39 39 39 39 39 39 38 37 37 37 36 36 33 30 30 32 32 32 32 32 33 33 33 33 32 32 32 33 33 33 33 32 31 32 31 30 30 31 31 31 29 29 29 30 31 30 29 29 27 26 26 27 27 27 27 26 24 25 25 24 22 20 20 20 20 20 20 21 21 20 20
32 33 33 34 35 36 36 37 38 38 38 39 39 39 39 39 39 39 40 40 40 40 39 39 38 37 38 39 39 36 33 34 35 35 35 35 35 35 35 35 35 34 34 33 33 33 33 33 33 33 32 31 30 29 30 32 31 30 28 27 28 29 30 30 29 28 27 26 26 25 26 28 27 25 25 26 25 23 22 21 21 21 21 20 20 20 20 20
33 34 35 36 37 38 38 39 39 40 40 40 40 39 39 39 40 40 39 39 40 40 40 40 39 38 39 41 40 38 38 40 39 37 36 35 35 36 36 36 36 35 35 35 34 34 34 34 34 35 33 31 31 29 28 29 31 31 29 28 28 27 29 29 28 27 27 27 25 24 26 28 27 26 26 26 25 24 23 22 22 22 21 21 21 20 20 21
35 36 37 38 39 40 40 41 41 41 41 41 40 40 40 41 41 40 40 40 40 40 40 39 39 38 40 42 39 38 41 41 39 38 36 34 34 34 34 34 35 36 36 36 35 35 35 35 34 34 35 33 32 30 27 27 29 29 28 29 29 28 29 28 27 27 27 27 26 25 28 28 26 26 26 25 25 25 24 23 23 22 22 21 21 21 21 21
37 38 39 40 40 41 41 42 42 41 41 41 41 41 41 41 41 40 39 39 38 38 38 37 37 37 40 41 39 38 39 38 37 37 36 35 34 33 32 32 33 34 35 36 35 35 35 35 35 34 34 34 32 30 28 27 27 28 29 29 30 30 28 27 27 27 27 26 26 26 27 27 26 27 27 25 25 25 25 24 23 23 23 22 21 21 22 21
39 39 40 41 41 42 42 42 42 42 42 42 42 42 42 41 40 39 38 37 36 35 34 34 35 36 38 38 35 35 36 36 36 36 35 35 34 33 33 33 33 34 35 35 35 35 35 35 35 35 34 34 33 30 28 29 28 29 31 30 29 30 28 26 26 27 27 25 26 28 27 24 24 26 27 26 25 26 25 24 24 24 23 23 22 22 22 21
40 40 41 41 41 42 42 42 43 43 43 43 42 41 41 40 38 36 34 32 31 30 30 31 32 35 36 35 34 34 35 34 34 35 35 35 35 35 34 33 33 34 34 34 35 35 35 35 35 35 35 33 33 31 29 32 33 30 29 29 28 29 28 27 26 25 26 26 26 28 28 25 23 23 24 24 25 26 25 24 24 24 24 23 23 23 23 22
40 40 41 41 42 42 42 43 43 43 43 42 40 39 38 36 33 31 29 27 27 26 28 29 29 31 33 32 32 33 34 34 34 35 36 36 36 36 36 35 33 33 34 34 35 35 34 35 35 34 35 35 35 35 34 33 33 31 29 29 27 26 28 28 26 24 24 26 26 27 27 27 25 23 23 23 24 25 25 24 24 24 24 24 24 24 23 23
40 41 41 41 41 42 42 42 43 43 42 40 38 37 34 30 27 26 24 24 24 25 26 28 29 30 31 31 33 33 34 36 36 36 37 36 35 35 36 35 34 34 34 34 34 35 35 34 35 36 38 39 38 38 36 30 29 31 29 28 28 26 27 26 25 25 24 24 26 26 26 26 25 24 24 24 23 24 24 22 23 24 25 25 25 25 24 25
41 41 41 41 41 41 42 42 43 42 41 37 35 32 28 24 23 22 23 24 25 26 28 29 31 33 34 34 35 35 36 37 37 37 36 36 35 34 34 35 34 35 36 34 33 35 34 34 37 39 38 38 37 36 36 30 26 29 29 28 28 27 26 25 24 24 24 23 25 26 26 26 26 25 25 24 23 23 22 21 22 24 24 25 25 25 26 26
41 41 41 41 41 42 42 43 42 40 38 34 30 26 21 21 21 21 23 24 25 26 28 30 32 35 35 35 35 35 35 36 37 37 36 35 35 33 34 34 34 35 36 34 33 33 35 37 39 38 35 36 36 34 35 32 26 26 28 28 28 27 26 25 23 23 23 23 23 24 25 26 26 25 24 23 22 22 22 22 23 24 24 24 25 25 26 25
41 41 41 41 41 42 42 41 39 37 33 28 24 21 19 19 19 20 23 23 23 25 28 30 31 33 34 35 35 34 34 34 35 36 36 36 36 35 34 34 35 35 35 35 34 33 36 38 37 35 34 34 34 34 34 34 29 25 26 27 27 27 26 25 23 22 22 24 23 23 24 25 26 24 23 22 22 23 24 24 24 24 24 23 23 24 25 24
40 40 40 40 41 41 40 38 36 33 27 23 21 19 18 18 17 20 21 22 23 23 26 29 29 30 30 30 30 29 31 32 32 35 36 37 37 37 35 34 35 35 36 38 37 36 36 36 35 34 33 33 33 34 34 34 32 28 26 27 27 26 25 25 24 22 22 23 23 22 22 24 24 23 23 23 24 23 24 25 25 25 25 25 25 25 25 25
40 40 39 40 40 39 37 35 32 27 23 21 20 17 17 16 17 19 19 20 20 19 20 22 23 24 25 24 23 24 27 29 30 31 34 37 37 36 35 34 34 35 37 39 39 37 34 31 33 35 34 33 33 34 34 34 33 31 28 27 26 26 25 24 23 22 22 22 22 21 21 23 24 23 23 23 23 23 23 24 25 25 26 26 26 26 27 27
39 39 39 39 39 37 35 31 26 23 22 20 18 16 16 17 18 18 17 17 16 15 14 13 14 16 18 19 19 21 23 25 28 30 32 36 36 34 34 33 34 36 37 38 37 37 35 30 30 33 34 34 33 33 35 34 33 32 31 28 26 25 24 22 20 20 21 23 23 22 21 23 23 24 24 23 22 23 23 23 25 26 26 26 26 27 27 27
38 38 38 38 37 35 31 26 22 21 21 19 17 17 17 17 17 16 16 15 13 12 11 9 9 10 11 13 16 18 19 21 25 29 31 34 34 33 32 32 33 34 35 36 35 35 35 31 28 31 34 35 34 33 34 34 32 32 32 30 27 25 23 21 19 19 21 23 22 22 22 22 21 23 24 23 24 25 24 24 25 25 25 26 26 26 27 26
37 37 37 36 35 32 27 22 21 21 19 18 19 18 17 17 16 16 15 12 10 11 10 9 8 7 9 11 13 14 16 16 18 26 31 33 32 31 31 31 32 33 34 34 34 33 35 34 30 29 32 34 35 34 33 33 31 30 31 30 28 25 23 21 20 20 21 21 21 21 22 21 22 24 24 22 24 25 25 25 25 24 25 26 26 26 25 25
37 37 36 34 32 29 24 22 21 20 18 19 20 18 18 17 16 16 13 9 10 12 11 10 9 9 11 12 13 15 16 14 14 22 29 31 31 29 28 30 31 32 34 35 35 31 33 36 33 30 31 33 33 32 31 32 30 29 29 29 28 26 23 20 19 21 20 19 21 22 21 21 22 23 22 22 24 25 25 26 25 25 26 26 25 25 24 24
36 36 34 33 30 27 23 21 20 20 19 20 20 19 19 18 16 15 11 8 11 14 11 10 12 11 10 11 12 15 16 15 14 19 25 29 30 27 26 28 29 30 33 35 34 29 29 35 34 30 30 31 31 30 31 31 30 27 26 26 26 25 23 21 20 20 19 19 23 24 21 20 21 22 22 21 23 25 25 25 25 25 25 26 24 24 23 23
35 35 33 31 28 24 23 21 20 20 20 20 20 19 18 17 15 13 10 10 13 14 12 12 13 12 10 8 8 11 12 14 15 18 23 26 28 27 25 26 27 28 30 32 34 30 26 29 33 31 30 29 29 29 30 31 29 25 24 23 22 22 22 21 21 19 19 22 24 24 23 21 20 21 22 22 23 23 23 23 23 23 24 25 24 23 23 23
34 33 32 29 25 23 22 21 21 20 20 20 19 18 17 16 14 11 11 12 13 13 13 14 13 11 9 8 4 8 10 12 14 18 22 23 25 26 24 25 25 25 28 29 32 32 27 26 30 31 31 29 27 29 29 30 29 26 24 23 22 21 20 20 20 20 21 23 22 23 23 22 22 21 21 22 22 21 21 21 22 23 24 24 24 23 23 23
34 32 29 26 23 22 21 21 21 21 20 19 18 18 16 15 13 11 12 14 13 12 14 14 14 12 9 6 2 6 8 11 13 16 21 22 24 25 24 25 26 25 27 29 29 30 29 27 28 29 32 31 28 28 29 29 30 28 25 25 23 21 20 21 21 21 23 22 19 20 22 22 23 23 22 22 22 21 21 21 22 23 23 23 23 23 22 22
33 30 27 24 22 21 20 20 20 19 20 18 17 17 16 14 12 11 13 14 12 13 14 14 15 13 8 3 1 4 6 9 12 15 19 21 22 23 23 23 25 23 24 28 28 28 28 27 27 28 30 32 30 29 30 30 31 30 28 28 26 22 22 24 23 21 21 21 20 20 20 20 21 21 22 23 22 20 20 21 22 23 23 23 21 20 20 21
33 28 24 23 22 21 20 20 19 18 19 18 17 17 15 13 12 13 14 13 12 14 14 14 15 12 7 4 2 4 6 8 11 14 18 21 21 22 23 23 24 22 22 25 27 28 27 25 28 29 28 31 32 30 30 29 30 30 28 27 27 24 23 23 23 22 21 20 20 20 19 19 19 19 20 21 19 18 19 21 22 22 23 22 20 19 20 21
31 25 22 22 22 21 20 19 18 18 18 18 17 16 14 12 13 14 14 13 13 14 14 14 13 11 7 4 3 4 6 7 11 14 16 20 21 21 22 23 23 22 21 24 25 27 26 23 26 29 27 29 31 28 27 28 28 29 27 26 28 26 22 19 21 22 21 18 18 20 20 19 18 18 17 16 16 16 17 19 20 20 20 20 19 20 21 22
29 24 21 22 22 21 21 19 17 17 17 18 17 15 13 13 14 14 14 14 14 14 15 14 10 9 8 5 4 3 5 6 10 12 14 18 20 20 22 22 23 23 22 23 24 25 24 21 23 27 27 27 30 29 28 29 28 28 28 28 28 27 22 18 19 19 18 18 19 19 20 19 16 16 16 14 14 14 15 17 18 18 19 19 20 20 21 22
27 23 21 21 21 20 20 19 17 17 17 17 16 15 14 13 14 14 14 14 14 14 13 12 9 8 8 5 5 4 4 5 8 10 13 16 18 20 22 21 22 24 22 22 22 23 24 21 21 26 27 25 27 29 27 28 28 28 30 29 26 24 23 20 17 16 16 18 18 18 20 20 17 15 15 14 14 15 15 16 16 17 17 19 20 20 20 21
26 22 20 21 20 19 19 19 18 17 16 16 16 15 14 14 14 14 13 14 14 13 10 9 7 7 7 5 5 4 4 4 5 9 13 15 16 19 22 21 21 23 22 21 20 20 23 21 19 24 27 24 25 27 27 27 28 27 28 29 25 23 24 22 18 16 17 17 17 17 18 19 19 18 16 16 17 17 16 16 16 17 17 18 20 20 20 21
24 21 19 20 20 19 18 18 17 17 16 16 16 16 15 15 14 13 13 13 13 11 9 7 6 6 6 5 4 3 3 4 5 7 11 15 15 17 21 21 21 22 22 21 20 19 20 19 18 21 25 24 24 28 29 29 27 25 26 28 27 23 23 24 20 17 17 17 16 15 15 18 20 18 16 17 17 17 17 17 16 16 16 16 17 19 20 20
23 19 19 20 19 18 18 17 16 16 16 16 16 16 16 16 14 13 13 12 11 10 9 8 7 6 6 5 3 3 3 4 5 6 8 14 14 14 19 22 21 21 21 22 21 19 18 17 16 19 23 25 26 28 30 30 28 28 27 29 29 24 22 23 21 18 15 15 15 15 15 17 18 17 16 16 16 16 17 17 16 16 16 16 17 17 19 19
22 18 18 19 19 17 17 16 15 16 15 15 15 15 16 16 15 15 14 11 10 9 9 8 7 7 7 5 4 3 3 4 6 6 7 13 14 12 17 21 22 21 20 21 21 19 17 16 15 18 23 26 25 26 27 28 28 27 26 27 28 26 22 21 21 20 17 14 14 15 14 16 17 17 16 16 15 15 16 15 15 15 15 16 16 16 17 18
20 18 18 19 18 17 17 15 15 16 16 15 16 16 16 16 15 14 13 12 10 9 9 8 7 7 7 5 3 2 2 3 6 6 7 11 12 12 15 20 22 22 20 20 20 19 18 16 15 17 22 23 22 23 25 26 26 25 24 24 26 26 23 22 21 21 19 15 13 14 13 15 16 17 17 16 15 15 15 15 14 13 13 13 14 15 16 17
19 17 17 18 17 16 16 14 14 16 16 16 16 16 15 15 14 14 13 12 11 10 9 8 8 9 8 5 3 2 3 4 6 6 6 8 10 11 15 20 23 22 20 20 20 19 17 16 15 15 18 20 19 20 23 24 24 24 24 24 25 25 24 22 19 20 21 18 14 12 13 14 15 16 17 17 16 15 15 16 14 12 12 13 14 15 16 17
18 16 16 17 17 16 16 15 15 17 16 16 17 16 15 13 13 13 12 11 11 10 9 8 9 10 8 5 4 3 3 4 5 6 6 7 9 10 14 20 23 22 21 21 20 18 17 16 15 15 17 19 17 18 21 24 25 24 25 25 24 25 25 21 18 17 19 20 17 14 13 14 14 13 14 15 15 15 15 16 16 14 13 14 14 15 17 18
18 15 15 16 16 15 15 15 16 17 17 17 17 17 16 14 13 14 12 10 10 9 9 8 8 9 8 6 4 3 3 4 5 5 5 6 8 9 12 18 22 21 21 21 20 18 16 15 15 15 17 19 19 20 23 25 25 23 24 25 24 25 26 23 19 17 17 19 19 17 14 13 13 12 12 13 15 16 15 15 16 16 15 15 14 15 17 18
16 14 14 15 14 14 15 15 15 16 17 18 17 16 17 16 15 14 12 10 9 9 8 7 7 8 7 5 4 3 3 4 5 4 5 5 7 9 13 17 20 21 22 22 20 17 15 15 15 15 17 18 19 20 22 24 24 23 24 25 25 25 26 24 21 19 17 16 17 19 17 13 12 12 12 13 15 16 16 16 15 15 16 16 15 16 16 17
15 13 14 14 13 13 14 15 15 16 16 17 16 16 17 17 16 14 12 10 10 9 7 6 6 8 7 5 4 3 3 4 4 4 3 4 7 10 13 16 19 21 23 21 19 16 14 13 14 15 16 17 18 19 21 22 23 23 23 24 24 24 24 24 23 21 19 15 15 17 17 15 14 13 12 13 14 16 17 17 17 17 17 17 16 16 16 17
14 13 13 13 12 12 14 14 15 16 16 16 16 16 17 18 17 15 12 11 11 9 7 6 6 8 8 6 4 4 4 4 4 3 2 4 7 10 15 18 19 21 22 19 16 16 14 13 14 14 14 15 16 17 19 20 21 21 22 23 23 24 24 24 24 22 21 18 15 15 15 15 14 13 12 12 13 14 16 17 19 19 18 19 18 17 17 17
13 12 12 12 12 12 13 14 15 15 16 17 16 16 17 18 18 16 13 11 10 9 7 7 7 8 7 4 3 4 4 4 3 3 3 6 9 13 17 18 18 18 19 17 14 14 14 13 14 14 12 13 14 16 18 19 19 18 19 20 21 23 23 23 22 21 21 20 17 15 15 15 13 12 12 10 10 12 13 14 17 19 19 20 20 19 19 19
14 13 12 12 11 11 12 13 13 14 15 16 16 16 17 17 18 17 13 10 10 9 8 8 8 7 6 3 3 3 3 3 2 3 5 7 11 15 17 18 18 17 16 15 14 13 13 13 13 14 12 11 14 16 17 19 19 18 17 17 17 19 20 20 19 20 20 19 17 15 14 15 13 11 11 9 9 10 11 12 14 17 19 21 21 21 21 20
14 14 13 12 11 11 11 12 12 13 13 15 15 16 16 17 18 18 14 10 9 8 8 8 8 6 4 2 2 2 2 2 2 4 7 10 13 15 16 17 17 16 15 14 13 12 12 12 13 14 11 11 14 17 18 19 18 17 15 14 15 17 19 19 18 18 19 19 17 15 15 15 13 11 10 9 9 10 10 11 12 14 17 19 21 22 22 21
14 14 13 12 10 10 10 11 11 12 13 14 15 16 16 16 17 17 14 12 10 7 6 7 7 5 2 1 1 2 2 3 4 5 8 12 14 15 16 16 16 16 15 13 12 12 12 12 14 14 12 12 13 16 18 18 16 14 13 14 15 17 17 17 16 16 16 17 17 17 17 15 13 11 10 9 9 10 10 11 12 13 15 17 19 21 23 23
Wind_Direction
303 301 299 298 297 296 295 293 291 289 287 286 284 282 281 279 277 275 273 272 271 270 269 268 268 267 266 265 266 266 266 265 263 261 258 256 254 252 252 251 248 245 243 242 241 240 241 240 236 234 234 234 234 234 233 233 232 233 236 238 240 239 239 239 239 241 242 245 246 247 246 242 243 242 241 243 244 244 243 242 241 241 243 247 241 230 222 220
306 304 301 300 299 297 296 294 293 291 289 287 286 284 282 280 279 277 274 272 271 271 270 269 268 267 266 265 265 265 265 264 263 260 257 254 252 251 253 253 247 241 239 238 238 238 238 238 234 232 232 233 234 233 232 233 232 233 236 238 240 239 240 240 238 240 242 241 243 249 249 244 240 241 241 241 246 246 241 241 240 240 242 245 238 225 221 218
309 306 304 302 300 299 298 296 294 292 291 289 287 285 283 281 280 278 276 273 271 271 270 269 268 267 267 266 265 264 264 263 261 257 251 250 250 251 254 254 247 239 236 235 236 236 236 236 234 231 232 233 233 232 232 232 232 234 236 239 241 240 241 241 239 239 241 241 243 248 249 248 244 241 240 240 245 246 239 238 236 234 234 237 233 222 218 217
311 309 307 304 302 300 299 297 296 294 292 290 288 287 285 283 281 279 278 275 272 270 270 270 268 267 267 267 265 264 263 261 257 249 245 249 251 252 253 253 246 238 235 234 234 236 235 235 234 231 231 233 233 232 232 232 232 234 235 239 241 239 241 242 240 241 242 242 241 244 248 249 246 242 239 238 241 242 240 238 234 231 229 227 226 221 218 216
312 310 308 306 304 302 300 298 297 295 293 291 289 287 286 284 282 280 278 276 274 271 270 269 269 268 266 267 265 263 260 257 252 243 244 251 252 252 253 250 243 236 234 233 233 234 233 234 233 231 231 233 232 232 233 231 232 236 237 240 240 237 240 241 240 241 242 243 243 243 245 245 245 242 236 233 235 237 240 240 237 233 229 225 221 218 218 216
312 310 308 306 305 302 301 299 297 295 294 293 290 288 286 284 283 281 279 277 275 272 269 268 268 267 266 266 264 260 255 253 250 243 247 253 252 252 252 248 242 236 233 232 232 233 232 232 232 231 232 233 232 233 234 231 231 237 239 238 238 237 239 240 238 238 239 240 241 240 241 242 243 242 235 230 233 237 241 242 241 237 231 227 220 216 217 216
312 310 309 307 305 303 301 299 298 296 295 293 291 289 287 285 283 281 279 277 275 273 270 267 266 266 265 264 262 257 252 252 251 247 250 253 251 252 250 246 243 238 234 233 232 232 231 230 230 230 231 232 233 233 234 232 233 236 239 237 237 237 238 239 238 238 237 237 238 239 241 241 241 240 236 235 237 241 246 246 244 237 229 225 220 217 217 217
313 312 310 308 306 304 303 301 299 297 296 294 292 290 287 286 283 281 279 277 275 273 271 268 265 265 264 262 260 256 252 252 252 251 251 251 251 251 248 244 242 240 237 235 233 232 231 230 229 229 230 232 232 232 232 232 235 236 236 238 238 237 238 239 239 239 239 238 239 239 239 239 240 241 238 239 243 245 246 244 240 232 224 221 219 217 217 217
316 314 312 311 309 307 305 303 301 299 297 295 293 291 289 286 284 282 280 277 276 273 271 269 265 263 262 259 257 255 252 252 252 251 250 249 249 248 247 243 242 241 238 237 235 232 231 230 229 229 231 232 231 231 230 230 234 234 233 236 238 239 238 238 237 237 237 237 237 238 238 238 240 241 239 236 238 241 240 237 233 226 221 218 218 219 219 217
318 316 315 313 311 310 308 306 304 301 299 297 295 293 290 288 285 282 280 278 276 273 271 268 265 262 259 257 255 253 252 251 250 250 249 249 249 247 245 243 242 241 239 238 235 232 231 230 229 229 231 232 230 230 229 228 233 233 232 234 236 238 239 238 237 236 235 236 235 237 239 239 239 238 237 233 233 236 235 233 229 223 220 217 218 221 221 219
320 319 317 316 314 312 310 308 306 304 301 299 297 294 291 289 286 283 281 279 276 273 270 267 265 261 258 256 252 251 251 249 250 251 251 251 250 247 244 242 241 240 239 237 234 232 231 229 229 228 230 230 229 230 230 230 234 233 232 234 236 237 238 237 237 235 234 236 234 234 239 238 236 235 235 234 233 234 232 230 226 221 220 218 218 220 222 222
322 321 319 318 316 314 312 310 308 306 303 301 298 296 293 290 287 284 282 279 276 272 269 266 263 259 257 255 250 250 251 251 253 254 253 252 250 247 244 242 240 238 237 236 234 232 230 229 228 228 228 229 228 229 231 230 231 233 232 235 237 237 237 234 234 233 231 234 232 232 240 238 232 233 235 234 232 231 230 227 224 221 220 220 220 221 223 224
323 322 320 319 317 315 314 312 309 307 304 302 299 297 294 291 289 286 283 279 276 273 269 265 262 258 257 254 252 253 253 253 255 254 252 250 247 246 243 241 239 236 235 234 233 231 229 228 228 228 229 229 227 227 231 231 229 230 232 233 235 237 238 233 230 229 229 232 228 229 240 237 232 234 234 234 231 228 227 225 224 223 222 221 222 222 223 224
324 322 321 319 318 316 314 312 310 308 305 302 300 297 295 292 290 286 283 279 276 273 269 264 260 257 256 255 255 256 253 253 252 250 249 247 245 243 240 238 237 234 232 231 231 230 228 227 227 227 228 227 228 230 231 232 229 227 229 232 231 232 237 234 228 225 227 231 223 227 241 238 233 236 235 233 229 226 225 224 224 225 223 223 224 224 225 226
325 323 322 320 319 317 315 314 311 309 306 304 300 298 295 293 290 287 283 280 275 271 267 263 259 257 256 256 257 255 252 250 247 246 245 244 242 240 238 236 234 232 230 229 229 228 227 226 225 225 226 224 225 229 228 229 231 227 227 230 229 229 235 236 230 223 225 229 222 225 240 240 233 233 234 233 228 226 225 224 224 225 224 224 226 227 228 229
326 324 323 321 320 318 317 315 313 310 308 306 303 299 296 293 290 286 283 280 275 270 265 262 258 256 256 256 256 254 250 247 244 244 242 240 239 238 238 236 233 230 228 227 227 227 225 225 224 223 223 222 221 223 224 227 229 227 226 228 227 228 231 233 232 227 223 225 226 227 236 240 234 232 233 231 228 226 226 225 225 225 225 224 226 229 229 230
327 325 324 322 321 320 318 316 314 312 309 308 306 301 297 294 290 286 283 279 275 269 264 262 259 255 256 256 254 252 248 244 242 241 240 239 238 238 238 235 231 228 225 224 224 225 224 223 223 222 221 221 219 218 221 224 225 225 225 226 228 226 226 228 231 230 223 224 229 231 235 238 236 235 233 229 227 226 225 225 225 225 225 225 226 228 228 230
328 326 324 323 322 321 319 318 316 314 312 310 307 303 299 294 289 285 281 278 275 271 267 263 259 257 255 252 251 249 245 243 240 239 240 240 238 236 234 232 229 225 222 221 221 221 221 221 221 220 220 219 218 216 219 224 223 221 221 223 227 226 225 225 226 228 223 225 229 230 235 237 236 237 235 230 225 225 226 225 224 224 224 224 225 226 227 228
328 327 326 325 324 323 321 320 319 317 315 312 309 305 300 295 291 285 280 279 277 273 270 264 258 257 256 252 251 250 247 245 242 240 240 240 237 233 230 228 226 223 220 219 219 218 218 220 219 218 219 218 218 217 218 224 223 219 220 223 224 225 227 227 226 227 222 225 230 228 232 236 235 234 234 234 228 224 226 226 224 223 222 224 226 227 227 228
329 328 327 327 326 325 324 323 321 319 317 315 312 309 303 298 294 286 282 280 277 274 271 266 260 257 258 257 255 254 251 246 241 238 238 237 233 229 226 224 222 221 220 218 217 216 215 218 220 219 220 218 218 218 218 224 223 218 220 223 224 224 228 228 226 228 224 224 231 229 229 233 233 231 232 233 229 225 225 224 224 223 222 225 226 228 228 229
331 330 330 329 329 327 326 324 323 321 320 317 315 312 306 301 296 291 289 283 278 275 272 268 263 258 257 257 257 256 252 245 240 236 235 233 228 226 224 220 219 220 219 215 214 215 215 219 221 219 219 216 216 217 217 222 222 220 220 221 223 224 226 227 224 226 224 224 231 229 228 232 232 230 230 230 228 227 224 222 224 222 223 225 225 227 228 231
333 333 332 332 330 328 327 326 325 324 323 322 320 317 310 305 299 297 297 290 283 279 274 270 264 260 259 257 256 254 250 245 240 236 234 230 227 225 222 218 219 219 216 213 213 214 217 220 219 216 216 215 214 215 216 220 220 220 220 219 222 224 225 226 224 224 222 223 230 228 227 233 233 230 230 229 228 229 225 222 223 221 222 224 224 225 228 231
335 335 334 333 332 330 330 329 329 328 329 329 327 322 317 313 307 305 304 297 293 287 278 271 264 261 260 257 254 249 245 242 238 235 231 226 224 222 219 217 218 217 214 213 213 213 217 220 216 214 215 213 213 214 214 218 219 219 218 218 221 222 221 222 222 225 223 224 227 226 229 235 234 232 231 230 229 230 228 225 226 224 222 224 223 224 226 228
337 337 336 335 334 333 333 333 333 335 337 335 331 327 324 321 317 315 312 305 302 299 289 276 266 261 257 255 251 244 242 239 234 232 227 220 219 219 217 216 215 215 214 213 214 214 217 220 215 212 214 213 213 214 213 216 218 218 217 217 219 219 218 219 222 224 225 228 226 225 234 238 233 231 230 231 231 232 230 227 227 228 226 226 226 226 227 229
339 339 338 338 338 337 337 337 340 343 343 341 339 336 333 330 327 325 324 317 311 312 310 295 277 265 255 251 249 244 242 238 232 229 222 216 215 215 215 214 214 215 214 212 214 215 217 219 214 211 213 213 213 214 213 214 216 218 218 216 216 216 216 219 221 221 222 228 228 224 232 237 234 232 229 230 231 231 231 228 227 228 227 227 228 229 231 232
341 340 340 341 342 342 342 344 346 346 346 346 346 343 340 338 336 334 333 325 320 324 329 321 299 278 260 249 249 246 241 239 233 224 218 214 213 213 213 214 213 213 212 210 214 216 215 216 214 211 211 211 213 214 214 212 214 219 217 213 214 215 216 217 218 217 219 224 227 223 226 233 236 234 231 228 228 232 234 233 230 228 226 226 227 229 230 231
342 342 342 343 345 347 348 348 349 349 349 350 348 347 344 343 340 340 339 334 334 340 339 333 319 292 274 259 251 242 235 236 230 219 214 212 210 211 212 212 212 211 209 208 213 215 212 213 214 212 210 211 213 213 213 211 212 218 216 210 212 214 214 214 213 216 221 224 228 225 224 230 235 233 232 229 229 234 236 235 233 230 227 226 225 226 226 226
344 343 343 344 346 348 349 350 351 352 351 348 349 348 345 344 343 344 346 344 346 347 342 339 330 308 290 271 249 236 234 235 225 213 210 207 206 208 209 210 209 209 208 206 210 213 211 211 211 210 210 212 212 211 210 208 211 217 214 210 211 212 212 212 213 218 223 226 229 228 225 230 234 234 234 232 230 234 236 233 232 230 227 225 224 223 223 224
344 344 344 344 346 349 351 353 354 353 350 347 347 347 346 345 346 348 351 346 345 345 344 341 332 321 305 279 250 234 230 226 217 207 202 202 204 205 206 207 205 206 208 208 208 211 212 211 209 209 210 211 211 209 207 207 210 214 211 208 209 210 210 212 216 221 225 228 227 227 226 230 236 234 232 232 232 234 235 234 233 230 226 224 223 223 223 224
344 345 345 345 347 351 354 354 351 349 349 347 346 347 348 349 350 352 348 341 342 342 343 341 335 330 319 297 254 225 217 212 208 200 196 198 202 203 203 202 201 202 205 207 208 210 212 210 208 208 210 210 208 208 207 206 207 207 206 205 204 207 210 213 218 219 223 229 227 225 225 229 236 234 227 229 231 230 231 234 233 229 225 224 224 224 223 222
345 345 346 347 348 351 353 352 351 349 349 348 347 349 351 350 353 355 347 344 343 341 344 344 339 336 328 314 257 209 203 204 202 195 193 195 198 200 199 198 199 199 201 204 207 210 211 208 207 207 206 206 206 206 206 205 204 203 203 200 198 204 207 212 217 215 218 226 227 225 224 226 232 232 227 229 231 228 226 229 228 224 223 223 223 223 222 221
346 345 347 349 349 349 351 351 352 352 352 352 352 354 355 353 354 352 346 349 349 348 352 351 348 349 338 323 246 197 194 196 197 192 191 192 194 197 197 196 197 196 200 202 202 205 208 207 207 206 204 204 203 203 203 203 203 202 200 196 196 201 205 210 213 214 218 224 224 221 221 226 232 232 230 231 231 227 225 223 222 220 221 221 221 221 220 218
347 346 348 351 351 351 350 351 353 354 356 357 356 357 359 358 356 350 347 352 353 351 353 351 348 350 346 346 162 188 187 188 191 189 189 188 190 195 196 196 195 194 198 199 198 200 203 206 206 204 203 203 201 200 200 200 201 200 199 197 198 200 204 209 212 214 219 221 221 219 221 229 235 233 229 228 229 228 225 222 220 218 217 217 218 218 216 214
348 348 350 352 352 353 351 352 355 357 359 359 359 1 2 359 355 354 351 352 350 347 349 349 347 351 4 40 96 167 172 179 184 184 186 186 188 193 194 195 195 194 194 195 197 198 198 203 204 201 202 201 200 202 201 199 199 200 200 198 201 202 204 208 210 211 216 219 219 217 220 226 228 229 227 224 229 230 224 220 218 217 216 215 216 216 214 213
349 350 352 354 355 355 355 355 357 0 2 2 3 4 4 359 357 358 356 355 355 351 348 350 352 2 26 59 84 142 156 169 178 180 184 185 188 191 192 193 193 192 193 193 196 197 196 204 204 200 201 200 199 201 199 196 198 201 199 199 203 204 202 206 208 209 212 215 217 216 220 226 227 231 229 223 228 228 221 216 212 213 215 214 215 215 213 212
352 354 355 357 358 358 359 359 0 3 4 4 4 2 1 359 358 359 357 357 358 353 349 353 5 18 27 52 81 116 141 158 171 178 182 184 188 190 190 191 190 190 192 191 193 194 194 202 203 198 199 200 198 197 198 198 198 198 199 202 204 202 200 202 207 211 210 213 219 218 221 230 233 234 229 220 221 223 217 212 209 210 212 213 217 216 212 211
354 356 357 358 358 0 2 2 3 3 3 3 3 1 1 360 357 356 355 352 351 350 350 356 14 24 21 39 69 91 122 146 169 179 181 183 189 190 189 191 189 188 190 189 191 193 192 197 201 195 196 200 196 194 198 200 197 197 200 201 200 200 204 204 206 213 211 213 221 218 218 225 226 227 228 220 217 220 216 210 209 212 214 217 221 218 212 210
354 356 358 359 360 2 4 5 6 5 5 5 2 1 4 4 1 358 353 349 348 352 355 358 15 30 26 35 55 75 114 142 167 176 180 184 190 190 188 189 189 188 188 186 188 191 190 193 199 194 193 195 193 192 197 200 199 198 200 200 197 199 205 205 204 209 209 212 220 219 220 223 220 223 227 220 216 216 212 208 209 212 216 220 221 217 211 206
355 359 1 1 2 4 5 6 8 7 8 9 6 4 6 5 2 359 353 351 355 1 8 12 25 36 31 37 51 74 111 141 159 166 177 184 188 189 187 187 189 188 185 183 184 187 187 189 194 194 190 188 191 195 196 197 197 197 198 199 199 201 203 203 203 206 207 210 215 217 222 224 221 220 218 215 215 212 208 209 212 214 217 219 217 213 208 205
357 0 2 3 4 5 5 6 7 8 10 10 7 7 7 5 5 1 356 0 8 15 22 28 38 42 37 40 49 76 100 127 148 155 174 180 181 186 187 186 187 186 182 182 184 184 184 186 189 189 187 187 193 197 196 195 194 195 196 197 199 201 202 202 206 208 205 207 211 212 220 225 221 214 210 211 211 206 204 206 209 213 215 214 211 208 206 204
358 1 2 3 5 6 7 8 8 9 11 10 8 9 7 6 5 2 3 11 19 26 30 35 45 43 37 36 44 75 93 116 139 141 160 174 177 181 186 187 185 183 181 183 184 182 181 184 185 184 187 190 193 195 194 194 195 196 197 197 197 198 197 198 205 210 208 209 211 210 218 226 219 209 210 211 206 202 203 204 206 209 211 210 207 205 202 200
359 1 2 5 8 9 11 12 11 10 11 10 8 6 3 4 6 7 11 18 24 31 36 42 43 30 24 29 39 71 107 125 137 137 147 168 177 180 184 186 183 179 179 182 183 180 178 181 183 185 190 193 193 192 191 191 194 196 198 198 197 198 197 196 202 207 207 211 214 209 215 226 219 209 210 214 212 208 208 208 208 209 210 207 203 202 200 198
358 358 1 6 10 12 13 14 11 10 10 8 6 3 1 6 11 12 15 20 25 30 36 41 35 21 19 31 38 62 112 129 142 146 148 162 175 180 181 181 179 177 179 181 180 178 179 181 183 185 186 188 190 191 189 189 191 196 199 198 197 199 199 198 201 204 205 209 212 209 214 223 220 212 211 214 217 216 213 211 210 208 208 205 201 200 199 197
355 355 0 7 11 13 15 14 9 7 7 7 6 5 6 12 15 12 13 19 25 29 31 32 30 25 25 40 54 74 105 125 143 153 155 159 171 181 180 177 178 179 179 178 176 175 179 181 179 179 178 178 181 183 186 190 192 196 198 197 197 199 197 198 201 201 204 209 208 205 215 221 217 214 213 214 217 219 217 214 212 209 208 206 202 200 199 198
355 357 1 5 12 17 17 16 13 7 5 5 4 5 9 13 14 9 8 14 21 26 26 25 32 34 35 47 61 73 106 133 144 152 160 163 172 182 179 175 177 179 178 177 175 174 177 179 176 176 178 179 182 185 187 189 191 193 195 195 197 197 196 199 201 199 204 210 207 207 215 222 219 215 216 217 218 219 219 217 216 214 211 207 203 200 200 201
358 2 2 3 12 18 15 13 14 12 9 7 7 7 8 8 7 4 5 13 19 19 20 23 32 32 29 34 45 60 103 133 143 149 160 171 178 180 176 173 174 176 178 178 175 172 174 179 179 179 183 185 186 189 188 186 187 191 192 193 197 197 197 198 199 202 205 206 209 213 214 219 225 221 221 223 222 221 220 218 218 216 212 208 205 201 201 202
358 1 4 5 9 13 13 12 14 13 9 8 9 8 5 3 4 5 8 13 14 9 11 21 23 16 12 14 26 59 98 115 129 142 157 176 180 178 174 172 172 174 177 176 172 171 174 181 182 180 184 187 186 189 188 184 186 190 189 192 196 195 195 197 201 205 203 200 212 217 211 215 225 224 224 226 222 222 223 219 217 215 210 208 205 200 200 200
358 358 1 6 6 8 11 9 7 6 3 5 9 8 3 2 3 4 3 3 4 4 6 13 12 7 10 18 32 62 87 88 98 115 125 145 160 164 161 160 164 171 173 169 167 171 175 180 179 174 178 184 184 186 186 182 184 187 186 189 193 193 194 198 203 206 202 202 212 211 203 208 219 222 223 224 220 221 222 217 215 213 208 205 202 199 198 198
356 355 356 2 2 359 359 357 357 0 1 4 8 8 5 2 0 1 1 358 360 5 7 3 1 4 12 27 53 75 82 70 70 93 108 124 144 152 151 152 159 165 166 165 167 170 173 178 176 168 170 177 177 178 179 177 178 182 185 188 190 192 195 198 203 206 205 208 213 208 204 212 218 217 217 220 219 216 213 210 210 210 208 205 202 200 198 197
354 353 352 354 355 352 352 354 358 3 3 4 7 7 6 4 2 2 5 6 5 12 16 4 354 1 11 26 71 84 72 47 60 121 127 133 144 147 149 154 160 160 160 164 168 170 174 178 172 163 161 168 170 170 170 169 170 174 180 185 187 189 193 197 201 204 206 210 213 211 213 221 222 216 214 215 209 203 202 203 205 206 207 206 204 202 199 199
349 349 348 348 351 354 356 359 3 5 6 8 8 6 7 6 3 3 7 14 13 12 13 2 352 3 20 33 74 75 37 46 123 149 149 152 153 150 152 157 158 159 161 164 165 168 173 174 169 162 158 163 167 168 167 164 163 168 177 185 188 189 192 197 200 202 203 206 207 208 214 219 219 218 219 214 202 198 203 204 202 202 202 202 204 204 203 201
346 346 346 345 347 353 357 358 3 5 8 10 6 4 3 0 360 3 9 17 17 3 358 358 355 9 45 79 89 61 38 76 130 152 156 158 160 158 159 162 161 161 162 163 165 169 168 168 169 166 162 165 168 168 169 165 163 173 185 189 190 191 192 196 201 204 205 203 203 208 214 217 218 219 222 218 205 202 206 207 204 200 196 195 197 199 199 199